Time,TemperatureF,DewpointF,PressureIn,WindDirection,WindDirectionDegrees,WindSpeedMPH,WindSpeedGustMPH,Humidity,HourlyPrecipIn,Conditions,Clouds,dailyrainin,SoftwareType,DateUTC
2013-02-22 00:01:00,35.0,32.0,29.78,WSW,246,7.0,-999.0,90,-99.99,,,-99.99,,2013-02-22 06:01:00,
2013-02-22 00:12:00,35.0,32.0,29.78,WSW,246,7.0,-999.0,90,-99.99,,,-99.99,,2013-02-22 06:12:00,
2013-02-22 00:21:00,35.0,32.0,29.78,WNW,292,7.0,-999.0,89,-99.99,,,-99.99,,2013-02-22 06:21:00,
2013-02-22 00:31:00,35.0,32.0,29.79,WSW,257,7.0,-999.0,89,-99.99,,,-99.99,,2013-02-22 06:31:00,
2013-02-22 00:42:00,35.0,32.0,29.79,WSW,257,7.0,-999.0,89,-99.99,,,-99.99,,2013-02-22 06:42:00,
2013-02-22 00:51:00,35.0,32.0,29.79,West,274,6.0,-999.0,90,-99.99,,,-99.99,,2013-02-22 06:51:00,
2013-02-22 01:01:00,35.0,32.0,29.79,West,272,8.0,-999.0,90,-99.99,,,-99.99,,2013-02-22 07:01:00,
2013-02-22 01:11:00,34.0,32.0,29.80,WNW,287,8.0,-999.0,91,-99.99,,,-99.99,,2013-02-22 07:11:00,
2013-02-22 01:21:00,34.0,32.0,29.80,WNW,287,8.0,-999.0,91,-99.99,,,-99.99,,2013-02-22 07:21:00,
2013-02-22 01:31:00,33.0,30.0,29.81,West,271,9.0,-999.0,90,-99.99,,,-99.99,,2013-02-22 07:31:00,
2013-02-22 01:42:00,32.0,29.0,29.82,WNW,283,9.0,-999.0,89,-99.99,,,-99.99,,2013-02-22 07:42:00,
2013-02-22 01:51:00,32.0,29.0,29.82,WNW,283,9.0,-999.0,89,-99.99,,,-99.99,,2013-02-22 07:51:00,
2013-02-22 02:01:00,31.0,29.0,29.83,WNW,296,8.0,-999.0,91,-99.99,,,-99.99,,2013-02-22 08:01:00,
2013-02-22 02:11:00,30.0,28.0,29.84,West,281,8.0,-999.0,91,-99.99,,,-99.99,,2013-02-22 08:11:00,
2013-02-22 02:21:00,30.0,28.0,29.84,West,281,8.0,-999.0,91,-99.99,,,-99.99,,2013-02-22 08:21:00,
2013-02-22 02:31:00,29.0,26.0,29.84,NW,304,9.0,-999.0,90,-99.99,,,-99.99,,2013-02-22 08:31:00,
2013-02-22 02:41:00,29.0,26.0,29.84,NW,304,9.0,-999.0,90,-99.99,,,-99.99,,2013-02-22 08:41:00,
2013-02-22 02:52:00,28.0,24.0,29.83,WNW,292,10.0,-999.0,85,-99.99,,,-99.99,,2013-02-22 08:52:00,
2013-02-22 03:03:00,27.0,23.0,29.84,WNW,286,9.0,-999.0,83,-99.99,,,-99.99,,2013-02-22 09:03:00,
2013-02-22 03:11:00,26.0,21.0,29.84,WNW,290,10.0,-999.0,81,-99.99,,,-99.99,,2013-02-22 09:11:00,
2013-02-22 03:21:00,26.0,21.0,29.84,WNW,290,10.0,-999.0,81,-99.99,,,-99.99,,2013-02-22 09:21:00,
2013-02-22 03:32:00,25.0,21.0,29.82,WNW,288,10.0,-999.0,83,-99.99,,,-99.99,,2013-02-22 09:32:00,
2013-02-22 03:42:00,24.0,20.0,29.83,WNW,284,6.0,-999.0,83,-99.99,,,-99.99,,2013-02-22 09:42:00,
2013-02-22 03:51:00,24.0,20.0,29.83,WNW,284,6.0,-999.0,83,-99.99,,,-99.99,,2013-02-22 09:51:00,
2013-02-22 04:01:00,24.0,20.0,29.83,West,272,6.0,-999.0,84,-99.99,,,-99.99,,2013-02-22 10:01:00,
2013-02-22 04:11:00,24.0,20.0,29.83,West,272,6.0,-999.0,84,-99.99,,,-99.99,,2013-02-22 10:11:00,
2013-02-22 04:21:00,24.0,20.0,29.84,WNW,296,6.0,-999.0,84,-99.99,,,-99.99,,2013-02-22 10:21:00,
2013-02-22 04:32:00,23.0,19.0,29.84,West,273,6.0,-999.0,83,-99.99,,,-99.99,,2013-02-22 10:32:00,
2013-02-22 04:42:00,23.0,19.0,29.84,West,273,6.0,-999.0,83,-99.99,,,-99.99,,2013-02-22 10:42:00,
2013-02-22 04:51:00,23.0,19.0,29.85,WNW,292,6.0,-999.0,83,-99.99,,,-99.99,,2013-02-22 10:51:00,
2013-02-22 05:01:00,23.0,19.0,29.85,SW,233,5.0,-999.0,83,-99.99,,,-99.99,,2013-02-22 11:01:00,
2013-02-22 05:11:00,23.0,19.0,29.85,SW,233,5.0,-999.0,83,-99.99,,,-99.99,,2013-02-22 11:11:00,
2013-02-22 05:21:00,23.0,19.0,29.85,WNW,289,5.0,-999.0,84,-99.99,,,-99.99,,2013-02-22 11:21:00,
2013-02-22 05:32:00,23.0,19.0,29.87,WNW,286,5.0,-999.0,84,-99.99,,,-99.99,,2013-02-22 11:32:00,
2013-02-22 05:42:00,23.0,19.0,29.87,WNW,286,5.0,-999.0,84,-99.99,,,-99.99,,2013-02-22 11:42:00,
2013-02-22 05:52:00,23.0,19.0,29.89,WSW,250,5.0,-999.0,84,-99.99,,,-99.99,,2013-02-22 11:52:00,
2013-02-22 06:02:00,23.0,19.0,29.89,WSW,255,4.0,-999.0,85,-99.99,,,-99.99,,2013-02-22 12:02:00,
2013-02-22 06:11:00,23.0,19.0,29.89,WSW,255,4.0,-999.0,85,-99.99,,,-99.99,,2013-02-22 12:11:00,
2013-02-22 06:21:00,22.0,18.0,29.90,West,267,4.0,-999.0,85,-99.99,,,-99.99,,2013-02-22 12:21:00,
2013-02-22 06:32:00,22.0,18.0,29.91,WNW,290,3.0,-999.0,86,-99.99,,,-99.99,,2013-02-22 12:32:00,
2013-02-22 06:42:00,22.0,18.0,29.91,WNW,290,3.0,-999.0,86,-99.99,,,-99.99,,2013-02-22 12:42:00,
2013-02-22 06:52:00,22.0,18.0,29.91,WNW,290,4.0,-999.0,86,-99.99,,,-99.99,,2013-02-22 12:52:00,
2013-02-22 07:02:00,22.0,19.0,29.91,West,281,3.0,-999.0,87,-99.99,,,-99.99,,2013-02-22 13:02:00,
2013-02-22 07:11:00,22.0,19.0,29.91,West,281,3.0,-999.0,87,-99.99,,,-99.99,,2013-02-22 13:11:00,
2013-02-22 07:22:00,22.0,19.0,29.91,WNW,283,3.0,-999.0,87,-99.99,,,-99.99,,2013-02-22 13:22:00,
2013-02-22 07:32:00,22.0,19.0,29.93,WNW,285,3.0,-999.0,87,-99.99,,,-99.99,,2013-02-22 13:32:00,
2013-02-22 07:42:00,22.0,19.0,29.93,WNW,285,3.0,-999.0,87,-99.99,,,-99.99,,2013-02-22 13:42:00,
2013-02-22 07:52:00,22.0,19.0,29.94,West,262,5.0,-999.0,88,-99.99,,,-99.99,,2013-02-22 13:52:00,
2013-02-22 08:01:00,22.0,19.0,29.94,NW,318,5.0,-999.0,88,-99.99,,,-99.99,,2013-02-22 14:01:00,
2013-02-22 08:11:00,22.0,19.0,29.94,WNW,303,5.0,-999.0,88,-99.99,,,-99.99,,2013-02-22 14:11:00,
2013-02-22 08:21:00,22.0,19.0,29.94,WNW,303,5.0,-999.0,88,-99.99,,,-99.99,,2013-02-22 14:21:00,
2013-02-22 08:32:00,22.0,19.0,29.96,WNW,295,4.0,-999.0,88,-99.99,,,-99.99,,2013-02-22 14:32:00,
2013-02-22 08:42:00,23.0,20.0,29.97,West,281,3.0,-999.0,88,-99.99,,,-99.99,,2013-02-22 14:42:00,
2013-02-22 08:52:00,23.0,20.0,29.97,West,281,3.0,-999.0,88,-99.99,,,-99.99,,2013-02-22 14:52:00,
2013-02-22 09:01:00,23.0,20.0,29.98,WNW,288,4.0,-999.0,87,-99.99,,,-99.99,,2013-02-22 15:01:00,
2013-02-22 09:11:00,24.0,20.0,29.98,West,272,5.0,-999.0,86,-99.99,,,-99.99,,2013-02-22 15:11:00,
2013-02-22 09:21:00,24.0,20.0,29.98,West,272,5.0,-999.0,86,-99.99,,,-99.99,,2013-02-22 15:21:00,
2013-02-22 09:32:00,24.0,20.0,29.99,WNW,296,5.0,-999.0,85,-99.99,,,-99.99,,2013-02-22 15:32:00,
2013-02-22 09:41:00,24.0,20.0,29.99,WNW,296,5.0,-999.0,85,-99.99,,,-99.99,,2013-02-22 15:41:00,
2013-02-22 09:52:00,24.0,20.0,30.00,WSW,250,6.0,-999.0,83,-99.99,,,-99.99,,2013-02-22 15:52:00,
2013-02-22 10:01:00,25.0,20.0,30.01,WSW,240,5.0,-999.0,82,-99.99,,,-99.99,,2013-02-22 16:01:00,
2013-02-22 10:12:00,26.0,22.0,30.01,WNW,296,5.0,-999.0,83,-99.99,,,-99.99,,2013-02-22 16:12:00,
2013-02-22 10:21:00,26.0,22.0,30.01,WNW,296,5.0,-999.0,83,-99.99,,,-99.99,,2013-02-22 16:21:00,
2013-02-22 10:32:00,26.0,21.0,30.01,NW,305,6.0,-999.0,81,-99.99,,,-99.99,,2013-02-22 16:32:00,
2013-02-22 10:42:00,26.0,21.0,30.01,NW,305,6.0,-999.0,81,-99.99,,,-99.99,,2013-02-22 16:42:00,
2013-02-22 10:52:00,26.0,21.0,30.01,West,281,6.0,-999.0,80,-99.99,,,-99.99,,2013-02-22 16:52:00,
2013-02-22 11:01:00,27.0,22.0,30.01,WNW,302,5.0,-999.0,80,-99.99,,,-99.99,,2013-02-22 17:01:00,
2013-02-22 11:11:00,27.0,22.0,30.01,WNW,302,5.0,-999.0,80,-99.99,,,-99.99,,2013-02-22 17:11:00,
2013-02-22 11:21:00,28.0,23.0,30.02,WNW,296,5.0,-999.0,81,-99.99,,,-99.99,,2013-02-22 17:21:00,
2013-02-22 11:32:00,28.0,22.0,30.02,WNW,296,6.0,-999.0,77,-99.99,,,-99.99,,2013-02-22 17:32:00,
2013-02-22 11:42:00,28.0,22.0,30.02,WNW,296,6.0,-999.0,77,-99.99,,,-99.99,,2013-02-22 17:42:00,
2013-02-22 11:52:00,29.0,22.0,30.03,West,275,5.0,-999.0,76,-99.99,,,-99.99,,2013-02-22 17:52:00,
2013-02-22 12:01:00,30.0,23.0,30.02,NNE,25,6.0,-999.0,76,-99.99,,,-99.99,,2013-02-22 18:01:00,
2013-02-22 12:12:00,31.0,23.0,30.01,WNW,298,8.0,-999.0,73,-99.99,,,-99.99,,2013-02-22 18:12:00,
2013-02-22 12:22:00,31.0,23.0,30.01,WNW,298,8.0,-999.0,73,-99.99,,,-99.99,,2013-02-22 18:22:00,
2013-02-22 12:32:00,31.0,23.0,30.01,North,360,6.0,-999.0,72,-99.99,,,-99.99,,2013-02-22 18:32:00,
2013-02-22 12:42:00,31.0,23.0,30.01,North,360,6.0,-999.0,72,-99.99,,,-99.99,,2013-02-22 18:42:00,
2013-02-22 12:51:00,32.0,23.0,30.01,WNW,287,6.0,-999.0,70,-99.99,,,-99.99,,2013-02-22 18:51:00,
2013-02-22 13:01:00,32.0,23.0,30.01,WNW,299,7.0,-999.0,69,-99.99,,,-99.99,,2013-02-22 19:01:00,
2013-02-22 13:11:00,33.0,23.0,30.01,NW,308,7.0,-999.0,66,-99.99,,,-99.99,,2013-02-22 19:11:00,
2013-02-22 13:21:00,33.0,23.0,30.01,NW,308,7.0,-999.0,66,-99.99,,,-99.99,,2013-02-22 19:21:00,
2013-02-22 13:31:00,33.0,23.0,30.00,WSW,256,6.0,-999.0,65,-99.99,,,-99.99,,2013-02-22 19:31:00,
2013-02-22 13:41:00,34.0,23.0,29.99,WNW,296,7.0,-999.0,64,-99.99,,,-99.99,,2013-02-22 19:41:00,
2013-02-22 13:52:00,34.0,23.0,29.99,WNW,296,7.0,-999.0,64,-99.99,,,-99.99,,2013-02-22 19:52:00,
2013-02-22 14:01:00,34.0,23.0,29.99,West,280,6.0,-999.0,64,-99.99,,,-99.99,,2013-02-22 20:01:00,
2013-02-22 14:11:00,34.0,23.0,29.99,West,280,6.0,-999.0,64,-99.99,,,-99.99,,2013-02-22 20:11:00,
2013-02-22 14:21:00,36.0,25.0,29.98,WNW,284,4.0,-999.0,64,-99.99,,,-99.99,,2013-02-22 20:21:00,
2013-02-22 14:32:00,36.0,24.0,29.98,WNW,287,6.0,-999.0,62,-99.99,,,-99.99,,2013-02-22 20:32:00,
2013-02-22 14:41:00,36.0,24.0,29.98,WNW,287,6.0,-999.0,62,-99.99,,,-99.99,,2013-02-22 20:41:00,
2013-02-22 14:52:00,36.0,24.0,29.98,WNW,287,6.0,-999.0,62,-99.99,,,-99.99,,2013-02-22 20:52:00,
2013-02-22 15:01:00,36.0,24.0,29.98,WNW,286,5.0,-999.0,62,-99.99,,,-99.99,,2013-02-22 21:01:00,
2013-02-22 15:11:00,37.0,25.0,29.98,West,281,5.0,-999.0,61,-99.99,,,-99.99,,2013-02-22 21:11:00,
2013-02-22 15:21:00,37.0,25.0,29.98,West,281,5.0,-999.0,61,-99.99,,,-99.99,,2013-02-22 21:21:00,
2013-02-22 15:32:00,37.0,23.0,29.98,WNW,286,6.0,-999.0,57,-99.99,,,-99.99,,2013-02-22 21:32:00,
2013-02-22 15:42:00,37.0,23.0,29.98,WNW,286,6.0,-999.0,57,-99.99,,,-99.99,,2013-02-22 21:42:00,
2013-02-22 15:51:00,37.0,24.0,29.97,NW,305,8.0,-999.0,58,-99.99,,,-99.99,,2013-02-22 21:51:00,
2013-02-22 16:01:00,37.0,23.0,29.98,WNW,283,5.0,-999.0,57,-99.99,,,-99.99,,2013-02-22 22:01:00,
2013-02-22 16:11:00,37.0,23.0,29.98,WNW,283,5.0,-999.0,57,-99.99,,,-99.99,,2013-02-22 22:11:00,
2013-02-22 16:21:00,37.0,24.0,29.97,NW,321,5.0,-999.0,59,-99.99,,,-99.99,,2013-02-22 22:21:00,
2013-02-22 16:31:00,37.0,24.0,29.96,NNW,333,4.0,-999.0,59,-99.99,,,-99.99,,2013-02-22 22:31:00,
2013-02-22 16:41:00,37.0,24.0,29.96,NNW,333,4.0,-999.0,59,-99.99,,,-99.99,,2013-02-22 22:41:00,
2013-02-22 16:51:00,37.0,23.0,29.96,NNW,341,5.0,-999.0,57,-99.99,,,-99.99,,2013-02-22 22:51:00,
2013-02-22 17:01:00,36.0,22.0,29.96,North,355,6.0,-999.0,57,-99.99,,,-99.99,,2013-02-22 23:01:00,
2013-02-22 17:11:00,36.0,22.0,29.96,North,355,6.0,-999.0,57,-99.99,,,-99.99,,2013-02-22 23:11:00,
2013-02-22 17:21:00,36.0,22.0,29.96,WNW,296,5.0,-999.0,56,-99.99,,,-99.99,,2013-02-22 23:21:00,
2013-02-22 17:31:00,36.0,22.0,29.96,North,351,5.0,-999.0,57,-99.99,,,-99.99,,2013-02-22 23:31:00,
2013-02-22 17:41:00,36.0,22.0,29.96,North,351,5.0,-999.0,57,-99.99,,,-99.99,,2013-02-22 23:41:00,
2013-02-22 17:52:00,35.0,23.0,29.96,WNW,282,3.0,-999.0,60,-99.99,,,-99.99,,2013-02-22 23:52:00,
2013-02-22 18:01:00,35.0,23.0,29.98,WNW,299,4.0,-999.0,61,-99.99,,,-99.99,,2013-02-23 00:01:00,
2013-02-22 18:11:00,33.0,22.0,29.98,NNW,342,3.0,-999.0,64,-99.99,,,-99.99,,2013-02-23 00:11:00,
2013-02-22 18:21:00,33.0,22.0,29.98,NNW,342,3.0,-999.0,64,-99.99,,,-99.99,,2013-02-23 00:21:00,
2013-02-22 18:32:00,32.0,22.0,29.98,NW,304,2.0,-999.0,66,-99.99,,,-99.99,,2013-02-23 00:32:00,
2013-02-22 18:42:00,32.0,22.0,29.98,NW,304,2.0,-999.0,66,-99.99,,,-99.99,,2013-02-23 00:42:00,
2013-02-22 18:51:00,32.0,23.0,29.98,WNW,298,2.0,-999.0,68,-99.99,,,-99.99,,2013-02-23 00:51:00,
2013-02-22 19:01:00,32.0,23.0,29.98,WNW,298,2.0,-999.0,69,-99.99,,,-99.99,,2013-02-23 01:01:00,
2013-02-22 19:11:00,32.0,23.0,29.98,WNW,298,2.0,-999.0,69,-99.99,,,-99.99,,2013-02-23 01:11:00,
2013-02-22 19:21:00,31.0,23.0,29.99,NW,323,1.0,-999.0,71,-99.99,,,-99.99,,2013-02-23 01:21:00,
2013-02-22 19:31:00,31.0,23.0,29.99,NW,323,1.0,-999.0,71,-99.99,,,-99.99,,2013-02-23 01:31:00,
2013-02-22 19:42:00,31.0,23.0,29.99,NW,323,1.0,-999.0,71,-99.99,,,-99.99,,2013-02-23 01:42:00,
2013-02-22 19:51:00,30.0,22.0,29.99,NW,323,1.0,-999.0,73,-99.99,,,-99.99,,2013-02-23 01:51:00,
2013-02-22 20:01:00,30.0,23.0,30.00,NW,323,1.0,-999.0,74,-99.99,,,-99.99,,2013-02-23 02:01:00,
2013-02-22 20:11:00,30.0,23.0,30.00,NW,323,2.0,-999.0,74,-99.99,,,-99.99,,2013-02-23 02:11:00,
2013-02-22 20:21:00,30.0,23.0,30.00,NW,323,2.0,-999.0,74,-99.99,,,-99.99,,2013-02-23 02:21:00,
2013-02-22 20:31:00,29.0,22.0,30.01,NW,323,1.0,-999.0,76,-99.99,,,-99.99,,2013-02-23 02:31:00,
2013-02-22 20:41:00,29.0,22.0,30.01,NW,323,1.0,-999.0,76,-99.99,,,-99.99,,2013-02-23 02:41:00,
2013-02-22 20:52:00,29.0,23.0,30.01,NW,326,2.0,-999.0,78,-99.99,,,-99.99,,2013-02-23 02:52:00,
2013-02-22 21:01:00,29.0,23.0,30.01,NW,326,1.0,-999.0,79,-99.99,,,-99.99,,2013-02-23 03:01:00,
2013-02-22 21:11:00,29.0,23.0,30.01,NW,326,1.0,-999.0,79,-99.99,,,-99.99,,2013-02-23 03:11:00,
2013-02-22 21:21:00,29.0,24.0,30.01,NNW,340,1.0,-999.0,80,-99.99,,,-99.99,,2013-02-23 03:21:00,
2013-02-22 21:32:00,29.0,24.0,30.02,NNW,347,1.0,-999.0,80,-99.99,,,-99.99,,2013-02-23 03:32:00,
2013-02-22 21:41:00,29.0,24.0,30.02,NNW,347,1.0,-999.0,80,-99.99,,,-99.99,,2013-02-23 03:41:00,
2013-02-22 21:51:00,29.0,24.0,30.01,North,10,1.0,-999.0,80,-99.99,,,-99.99,,2013-02-23 03:51:00,
2013-02-22 22:01:00,28.0,23.0,30.03,NNE,13,1.0,-999.0,81,-99.99,,,-99.99,,2013-02-23 04:01:00,
2013-02-22 22:11:00,28.0,23.0,30.03,NNE,13,0.0,-999.0,81,-99.99,,,-99.99,,2013-02-23 04:11:00,
2013-02-22 22:21:00,28.0,23.0,30.03,NNE,13,0.0,-999.0,81,-99.99,,,-99.99,,2013-02-23 04:21:00,
2013-02-22 22:31:00,28.0,23.0,30.04,NNE,13,0.0,-999.0,82,-99.99,,,-99.99,,2013-02-23 04:31:00,
2013-02-22 22:41:00,28.0,23.0,30.04,NNE,13,0.0,-999.0,82,-99.99,,,-99.99,,2013-02-23 04:41:00,
2013-02-22 22:51:00,28.0,23.0,30.04,NNE,13,1.0,-999.0,82,-99.99,,,-99.99,,2013-02-23 04:51:00,
2013-02-22 23:02:00,28.0,23.0,30.04,NNE,13,1.0,-999.0,82,-99.99,,,-99.99,,2013-02-23 05:02:00,
2013-02-22 23:12:00,28.0,23.0,30.04,NNE,13,1.0,-999.0,82,-99.99,,,-99.99,,2013-02-23 05:12:00,
2013-02-22 23:22:00,27.0,23.0,30.04,NNE,13,2.0,-999.0,83,-99.99,,,-99.99,,2013-02-23 05:22:00,
2013-02-22 23:32:00,27.0,23.0,30.04,NNE,12,2.0,-999.0,84,-99.99,,,-99.99,,2013-02-23 05:32:00,
2013-02-22 23:42:00,27.0,23.0,30.04,NNE,12,2.0,-999.0,84,-99.99,,,-99.99,,2013-02-23 05:42:00,
2013-02-22 23:52:00,27.0,23.0,30.04,NNE,12,0.0,-999.0,84,-99.99,,,-99.99,,2013-02-23 05:52:00,